User: anonymous   Login
Location: Unspecified
(0.0000°N, 0.0000°E)
Time: 00:14:42
(UTC+00:00)
Language:

OAO 2 - Orbit

View from above orbital plane
View from above orbital plane
View from above satellite
View from above satellite

Ground track
Ground track

The orbit data is extracted from the following two-line orbital elements,

1 03597U 68110A   17326.79862516  .00000048  00000-0  18555-4 0  9993
2 03597  34.9932 225.5601 0004996  69.4036 290.7190 14.45790170580877
Epoch (UTC): 22 November 2017 19:10:01
Eccentricity: 0.0004996
inclination: 34.9932°
perigee height: 736 km
apogee height: 743 km
right ascension of ascending node: 225.5601°
argument of perigee: 69.4036°
revolutions per day: 14.45790170
mean anomaly at epoch: 290.7190°
orbit number at epoch: 58087

The dashed part of the orbit path shows where the satellite is in the earth's shadow,  

DLR